| time (UTC) | temp C | wind direction | speed KPH | gust KPH | rain 1hr cm | rain 24hr cm | rain mn cm | humidity % | barometer mb |
| 20260902060054 | 26 | 222 | 0.0 | 0.0 | 0.00 | 0.00 | 0.00 | 100 | 1015.1 |
| 20260902054552 | 26 | 222 | 0.0 | 0.0 | 0.00 | 0.00 | 0.00 | 100 | 1015.0 |
| 20260902053045 | 26 | 222 | 0.0 | 0.0 | 0.00 | 0.00 | 0.00 | 100 | 1015.1 |
| 20260902051544 | 26 | 222 | 0.0 | 0.0 | 0.00 | 0.00 | 0.00 | 100 | 1015.2 |
| 20260902050036 | 27 | 222 | 0.0 | 0.0 | 0.00 | 0.00 | 0.00 | 100 | 1015.1 |
| 20260902044532 | 27 | 222 | 0.0 | 0.0 | 0.00 | 0.00 | 0.00 | 100 | 1015.2 |
| 20260902043028 | 27 | 222 | 0.0 | 0.0 | 0.00 | 0.00 | 0.00 | 100 | 1015.1 |
| 20260902041526 | 27 | 222 | 0.0 | 0.0 | 0.00 | 0.00 | 0.00 | 100 | 1015.3 |
| 20260902040020 | 27 | 222 | 0.0 | 0.0 | 0.00 | 0.00 | 0.00 | 100 | 1015.4 |
| 20260902034515 | 28 | 227 | 0.0 | 9.7 | 0.00 | 0.00 | 0.00 | 100 | 1015.3 |
| 20260902033012 | 28 | 232 | 0.0 | 1.6 | 0.00 | 0.00 | 0.00 | 100 | 1015.5 |
| 20260902031506 | 28 | 232 | 0.0 | 8.0 | 0.00 | 0.00 | 0.00 | 100 | 1015.4 |
| 20260902030002 | 28 | 234 | 0.0 | 9.7 | 0.00 | 0.00 | 0.00 | 100 | 1015.4 |
| 20260902024559 | 28 | 231 | 0.0 | 4.8 | 0.00 | 0.00 | 0.00 | 100 | 1015.4 |
| 20260902023054 | 29 | 234 | 0.0 | 8.0 | 0.00 | 0.00 | 0.00 | 100 | 1015.4 |
| 20260902021552 | 29 | 225 | 0.0 | 8.0 | 0.00 | 0.00 | 0.00 | 100 | 1015.3 |
| 20260902020044 | 30 | 233 | 0.0 | 6.4 | 0.00 | 0.00 | 0.00 | 100 | 1015.2 |
| 20260902014541 | 30 | 224 | 0.0 | 8.0 | 0.00 | 0.00 | 0.00 | 100 | 1015.1 |
| 20260902013036 | 30 | 220 | 0.0 | 4.8 | 0.00 | 0.00 | 0.00 | 100 | 1014.9 |
| 20260902011531 | 31 | 229 | 0.0 | 4.8 | 0.00 | 0.00 | 0.00 | 100 | 1014.7 |
| 20260902010040 | 31 | 227 | 0.0 | 8.0 | 0.00 | 0.00 | 0.00 | 100 | 1014.5 |
| 20260902004526 | 31 | 236 | 0.0 | 8.0 | 0.00 | 0.00 | 0.00 | 100 | 1014.3 |
| 20260902003019 | 32 | 216 | 0.0 | 6.4 | 0.00 | 0.00 | 0.00 | 100 | 1014.3 |
| 20260902001514 | 32 | 234 | 0.0 | 11.3 | 0.00 | 0.00 | 0.00 | 100 | 1014.4 |
| 20260902000020 | 33 | 217 | 0.0 | 11.3 | 0.00 | 0.00 | 0.00 | 100 | 1014.3 |
| 20260901234506 | 33 | 231 | 0.0 | 12.9 | 0.00 | 0.00 | 0.00 | 100 | 1014.4 |
| 20260901233000 | 33 | 219 | 0.0 | 11.3 | 0.00 | 0.00 | 0.00 | 100 | 1014.4 |
| 20260901231600 | 34 | 215 | 0.0 | 9.7 | 0.00 | 0.00 | 0.00 | 100 | 1014.5 |
| 20260901230056 | -17 | 0.0 | 0.0 | 0.00 | 0.00 | 0.00 | 1014.5 | ||
| 20260901224548 | -17 | 0.0 | 0.0 | 0.00 | 0.00 | 0.00 | 1014.5 | ||
| 20260901223043 | -17 | 0.0 | 0.0 | 0.00 | 0.00 | 0.00 | 1014.6 | ||
| 20260901221603 | -17 | 0.0 | 0.0 | 0.00 | 0.00 | 0.00 | 1014.6 | ||
| 20260901220035 | -17 | 0.0 | 0.0 | 0.00 | 0.00 | 0.00 | 1014.6 | ||
| 20260901214530 | -17 | 0.0 | 0.0 | 0.00 | 0.00 | 0.00 | 1014.5 | ||
| 20260901213053 | -17 | 0.0 | 0.0 | 0.00 | 0.00 | 0.00 | 1014.4 | ||
| 20260901211535 | -17 | 0.0 | 0.0 | 0.00 | 0.00 | 0.00 | 1014.6 | ||
| 20260901210021 | -17 | 0.0 | 0.0 | 0.00 | 0.00 | 0.00 | 1014.5 | ||
| 20260901204512 | -17 | 0.0 | 0.0 | 0.00 | 0.00 | 0.00 | 1014.6 | ||
| 20260901203009 | -17 | 0.0 | 0.0 | 0.00 | 0.00 | 0.00 | 1014.6 | ||
| 20260901201503 | -17 | 0.0 | 0.0 | 0.00 | 0.00 | 0.00 | 1014.7 | ||
| 20260901200058 | -17 | 0.0 | 0.0 | 0.00 | 0.00 | 0.00 | 1014.8 | ||
| 20260901194554 | -17 | 0.0 | 0.0 | 0.00 | 0.00 | 0.00 | 1014.9 | ||
| 20260901193059 | -17 | 0.0 | 0.0 | 0.00 | 0.00 | 0.00 | 1014.9 | ||
| 20260901191545 | -17 | 0.0 | 0.0 | 0.00 | 0.00 | 0.00 | 1015.0 | ||
| 20260901190041 | -17 | 0.0 | 0.0 | 0.00 | 0.00 | 0.00 | 1015.2 | ||
| 20260901184541 | -17 | 0.0 | 0.0 | 0.00 | 0.00 | 0.00 | 1015.3 | ||
| 20260901183032 | 34 | 360 | 4.8 | 16.1 | 0.00 | 0.00 | 0.00 | 100 | 1015.4 |
| 20260901181528 | 34 | 234 | 4.8 | 17.7 | 0.00 | 0.00 | 0.00 | 100 | 1015.4 |
| 20260901180024 | 34 | 360 | 3.2 | 16.1 | 0.00 | 0.00 | 0.00 | 100 | 1015.6 |
| 20260901174519 | 34 | 228 | 4.8 | 19.3 | 0.00 | 0.00 | 0.00 | 100 | 1015.6 |
| 20260901173014 | 33 | 219 | 3.2 | 14.5 | 0.00 | 0.00 | 0.00 | 100 | 1015.6 |
| 20260901171517 | 33 | 237 | 1.6 | 12.9 | 0.00 | 0.00 | 0.00 | 100 | 1015.7 |
| 20260901170006 | 33 | 246 | 1.6 | 12.9 | 0.00 | 0.00 | 0.00 | 100 | 1015.8 |
| 20260901164502 | 33 | 360 | 1.6 | 12.9 | 0.00 | 0.00 | 0.00 | 100 | 1015.9 |
| 20260901163057 | 32 | 360 | 4.8 | 16.1 | 0.00 | 0.00 | 0.00 | 100 | 1015.9 |
| 20260901161552 | 32 | 247 | 4.8 | 12.9 | 0.00 | 0.00 | 0.00 | 100 | 1016.0 |
| 20260901160048 | 32 | 240 | 3.2 | 14.5 | 0.00 | 0.00 | 0.00 | 100 | 1015.9 |
| 20260901154544 | 31 | 360 | 3.2 | 14.5 | 0.00 | 0.00 | 0.00 | 100 | 1016.0 |
| 20260901153039 | 31 | 360 | 1.6 | 12.9 | 0.00 | 0.00 | 0.00 | 100 | 1016.0 |
| 20260901151536 | 30 | 360 | 1.6 | 9.7 | 0.00 | 0.00 | 0.00 | 100 | 1016.1 |
| 20260901150031 | 30 | 235 | 0.0 | 6.4 | 0.00 | 0.00 | 0.00 | 100 | 1016.0 |
| 20260901144527 | 28 | 360 | 1.6 | 9.7 | 0.00 | 0.00 | 0.00 | 100 | 1016.1 |
| 20260901143022 | 28 | 360 | 4.8 | 12.9 | 0.00 | 0.00 | 0.00 | 100 | 1016.0 |
| 20260901141520 | 28 | 360 | 3.2 | 11.3 | 0.00 | 0.00 | 0.00 | 100 | 1015.7 |
| 20260901140015 | 27 | 245 | 1.6 | 11.3 | 0.00 | 0.00 | 0.00 | 100 | 1015.8 |
| 20260901134509 | 27 | 360 | 0.0 | 12.9 | 0.00 | 0.00 | 0.00 | 100 | 1015.9 |
| 20260901133004 | 26 | 214 | 1.6 | 11.3 | 0.00 | 0.00 | 0.00 | 100 | 1015.9 |
| 20260901131605 | 26 | 242 | 1.6 | 9.7 | 0.00 | 0.00 | 0.00 | 100 | 1016.0 |
| 20260901130057 | 25 | 250 | 0.0 | 3.2 | 0.00 | 0.00 | 0.00 | 100 | 1016.1 |
| 20260901124552 | 25 | 360 | 3.2 | 9.7 | 0.00 | 0.00 | 0.00 | 100 | 1016.2 |
| 20260901123049 | 25 | 251 | 1.6 | 8.0 | 0.00 | 0.00 | 0.00 | 100 | 1016.1 |
| 20260901121547 | 24 | 235 | 0.0 | 6.4 | 0.00 | 0.00 | 0.00 | 100 | 1016.0 |
| 20260901120044 | 24 | 232 | 0.0 | 0.0 | 0.00 | 0.00 | 0.00 | 100 | 1015.7 |
| 20260901114537 | 24 | 226 | 0.0 | 0.0 | 0.00 | 0.00 | 0.00 | 100 | 1015.3 |
| 20260901113030 | 24 | 229 | 0.0 | 0.0 | 0.00 | 0.00 | 0.00 | 100 | 1015.4 |
| 20260901111526 | 24 | 229 | 0.0 | 0.0 | 0.00 | 0.00 | 0.00 | 100 | 1015.2 |
| 20260901110026 | 24 | 227 | 0.0 | 0.0 | 0.00 | 0.00 | 0.00 | 100 | 1015.0 |
| 20260901104519 | 24 | 230 | 0.0 | 0.0 | 0.00 | 0.00 | 0.00 | 100 | 1014.9 |
| 20260901103012 | 24 | 234 | 0.0 | 4.8 | 0.00 | 0.00 | 0.00 | 100 | 1014.9 |
| 20260901101509 | 24 | 246 | 0.0 | 3.2 | 0.00 | 0.00 | 0.00 | 100 | 1014.8 |
| 20260901100006 | 24 | 247 | 0.0 | 0.0 | 0.00 | 0.00 | 0.00 | 100 | 1014.7 |
| 20260901094602 | 25 | 248 | 0.0 | 0.0 | 0.00 | 0.00 | 0.00 | 100 | 1014.8 |
| 20260901093055 | 25 | 248 | 0.0 | 0.0 | 0.00 | 0.00 | 0.00 | 100 | 1014.9 |
| 20260901091551 | 25 | 248 | 0.0 | 6.4 | 0.00 | 0.00 | 0.00 | 100 | 1014.6 |
| 20260901090050 | 25 | 244 | 0.0 | 4.8 | 0.00 | 0.00 | 0.00 | 100 | 1014.6 |
| 20260901084546 | 25 | 244 | 1.6 | 8.0 | 0.00 | 0.00 | 0.00 | 100 | 1014.7 |
| 20260901083038 | 25 | 244 | 0.0 | 4.8 | 0.00 | 0.00 | 0.00 | 100 | 1014.5 |
| 20260901081540 | 25 | 245 | 0.0 | 4.8 | 0.00 | 0.00 | 0.00 | 100 | 1014.7 |
| 20260901080028 | 25 | 243 | 3.2 | 11.3 | 0.00 | 0.00 | 0.00 | 100 | 1014.6 |
| 20260901074525 | 26 | 251 | 3.2 | 11.3 | 0.00 | 0.00 | 0.00 | 100 | 1014.6 |
| 20260901073023 | 26 | 247 | 1.6 | 9.7 | 0.00 | 0.00 | 0.00 | 100 | 1014.6 |
| 20260901071516 | 26 | 233 | 0.0 | 11.3 | 0.00 | 0.00 | 0.00 | 100 | 1014.5 |
| 20260901070021 | 26 | 234 | 1.6 | 9.7 | 0.00 | 0.00 | 0.00 | 100 | 1014.4 |
| 20260901064508 | 26 | 243 | 1.6 | 9.7 | 0.00 | 0.00 | 0.00 | 100 | 1014.4 |
| 20260901063006 | 26 | 230 | 0.0 | 6.4 | 0.00 | 0.00 | 0.00 | 100 | 1014.4 |
| 20260901061600 | 26 | 227 | 0.0 | 6.4 | 0.00 | 0.00 | 0.00 | 100 | 1014.3 |